Wind_Speed
28 31 35 42 22 34 36 38 42 45 43 44 43 42 41 38 38 38 41 37 37 39 39 38 39 39 40 39 39 39 37 37 39 37 33 32 34 33 30 30 33 32 32
34 36 37 37 43 44 44 46 48 49 46 44 43 47 44 44 44 42 43 47 44 44 45 45 45 45 46 46 46 47 46 45 43 42 42 40 37 39 36 33 33 37 35
40 45 44 43 44 44 48 49 48 49 49 50 46 45 44 45 45 46 47 49 52 53 55 53 53 55 55 55 53 54 54 55 53 52 49 46 44 43 44 41 38 36 39
37 32 33 35 42 44 43 44 46 48 47 47 46 46 48 49 50 51 54 56 60 59 62 63 63 61 64 65 65 64 63 63 62 61 60 57 52 49 48 48 45 41 41
45 42 38 38 39 41 41 42 44 46 47 47 51 53 56 58 60 61 62 65 67 68 69 69 72 72 73 74 73 74 75 73 72 70 69 67 64 58 55 53 51 49 46
42 42 42 41 44 46 49 51 53 54 54 56 57 56 59 62 64 66 68 69 71 73 77 77 78 78 81 80 80 80 81 80 80 80 79 76 74 70 64 61 58 55 53
42 44 47 50 52 52 55 55 55 55 57 58 61 61 60 63 66 69 72 74 75 77 79 80 83 84 84 85 86 87 87 88 87 86 86 85 83 81 76 70 66 63 60
49 50 50 51 53 54 55 56 58 58 58 59 63 67 65 64 68 74 77 80 84 86 87 89 90 92 93 94 96 98 99 96 96 97 96 94 91 89 87 82 77 72 68
48 51 53 54 54 55 55 56 56 57 59 61 64 68 73 77 80 82 84 87 90 93 95 97 98 100 100 101 103 106 107 106 105 106 105 103 101 98 95 92 87 82 77
52 54 56 57 55 54 55 56 57 60 65 69 73 77 81 84 88 92 95 97 98 102 105 105 106 104 102 102 102 105 108 109 110 111 113 113 109 107 104 101 96 92 87
55 57 58 58 57 56 58 59 62 67 72 76 80 83 86 90 94 98 99 104 104 96 85 81 77 72 71 71 71 74 79 85 90 97 104 111 115 115 114 111 106 100 96
58 58 59 59 59 60 62 66 70 73 78 82 84 88 93 98 102 102 96 86 76 63 58 56 55 55 56 57 57 59 62 63 66 71 78 91 103 111 112 112 108 104 100
60 61 62 62 63 64 68 72 77 80 84 87 92 98 102 98 92 83 74 65 54 44 42 43 43 44 46 46 44 44 48 55 61 61 63 68 76 89 103 108 108 102 101
62 62 64 64 65 69 73 78 81 84 88 95 98 98 91 84 75 66 55 48 43 39 38 37 39 42 44 45 45 45 44 44 47 50 54 61 65 68 78 90 101 103 99
63 65 66 66 69 73 78 81 83 88 96 99 90 84 79 72 60 51 46 44 43 38 35 35 39 42 45 47 46 43 42 43 45 46 47 48 50 54 59 66 75 91 96
65 67 67 70 74 77 80 81 88 97 99 88 81 76 68 57 48 43 42 42 43 44 39 39 42 45 45 46 44 42 41 40 41 43 44 47 49 50 51 53 58 65 76
67 66 69 73 77 79 81 88 96 97 87 81 74 65 53 46 43 40 40 43 43 45 47 42 44 44 45 44 42 39 36 36 37 39 39 41 44 47 50 50 51 54 57
66 68 71 76 77 80 86 91 98 91 79 72 62 51 45 42 39 39 41 42 44 46 49 50 41 44 44 42 38 37 37 38 40 43 43 46 42 42 47 50 50 49 51
68 70 73 78 80 85 92 98 92 81 71 61 51 44 40 38 37 40 42 43 45 47 48 46 42 44 40 38 37 38 41 43 45 47 47 48 45 42 43 48 50 47 47
70 72 77 82 85 89 98 95 82 72 62 51 45 41 38 37 38 40 42 44 47 45 43 44 44 40 36 36 38 42 44 46 45 46 43 45 44 41 42 44 50 47 44
72 75 78 85 89 95 96 87 75 64 54 46 42 40 39 38 39 41 44 45 44 42 43 44 40 36 35 38 42 44 43 43 42 40 36 40 41 40 42 43 48 48 42
75 77 82 91 94 98 88 80 68 57 48 43 40 39 37 38 39 41 41 41 43 42 42 40 36 34 37 41 42 42 41 39 34 34 32 37 42 39 42 44 46 47 41
77 80 85 93 95 97 81 74 61 50 44 41 37 35 36 39 40 41 40 42 41 40 38 37 33 35 38 39 40 37 36 35 27 26 30 40 40 40 39 45 41 46 41
79 83 86 93 95 89 74 64 52 44 39 37 36 36 37 39 39 39 40 39 39 38 35 32 33 34 36 38 37 33 33 28 23 22 28 36 37 36 38 41 38 44 41
79 82 86 93 84 77 64 55 45 40 37 36 36 35 37 39 37 38 38 37 37 34 31 29 30 33 34 34 32 30 30 23 20 22 26 33 34 37 39 38 37 45 42
86 80 82 87 76 69 57 48 42 39 36 34 35 36 34 35 37 38 36 34 33 31 26 26 30 32 32 31 29 27 25 19 18 15 18 24 36 37 35 35 36 45 44
Wind_Direction
324 297 287 299 303 302 295 281 292 298 283 288 284 285 286 282 278 275 278 277 276 279 279 279 281 280 280 280 278 275 273 274 276 272 268 263 261 262 258 257 254 250 253
319 315 311 307 305 303 298 288 285 284 278 279 284 285 281 278 278 274 274 275 272 270 272 274 276 276 275 274 275 276 276 274 272 273 274 269 262 262 261 256 252 252 246
313 310 308 305 302 295 291 286 285 284 290 285 286 281 280 279 278 278 276 277 279 277 274 274 278 279 278 276 273 273 274 274 273 272 269 270 269 264 263 259 254 251 252
316 307 296 280 285 289 289 289 289 289 289 288 285 279 279 279 283 284 282 280 278 280 282 280 277 278 280 278 278 276 272 271 271 271 270 267 265 265 263 260 258 253 250
318 312 308 304 300 299 300 297 293 290 288 283 282 283 285 285 286 285 285 285 283 279 275 277 278 281 279 277 279 278 276 273 272 269 269 268 265 261 260 261 260 256 253
316 312 307 301 298 297 298 300 300 299 297 294 292 290 289 289 288 287 285 283 282 280 280 279 277 276 276 275 274 272 272 273 270 268 270 269 267 264 259 257 259 258 254
308 312 312 310 307 305 303 301 299 297 295 294 293 291 291 292 292 290 289 288 285 282 280 277 276 274 272 270 269 268 267 266 267 267 266 265 265 265 263 257 253 254 254
320 317 312 307 305 302 299 297 296 296 295 295 295 295 295 293 293 293 292 290 288 286 283 281 280 276 274 270 268 267 266 265 264 263 262 262 261 261 261 259 254 251 252
314 313 310 308 305 301 299 299 298 298 299 299 299 299 298 298 296 295 294 292 290 288 287 285 283 280 278 274 270 268 264 261 263 264 262 260 260 257 257 258 256 252 250
310 311 311 310 308 306 303 302 302 302 303 304 303 303 302 301 300 297 296 293 291 290 288 286 283 281 278 274 271 267 264 261 259 257 257 259 258 257 256 255 254 252 248
310 310 310 310 308 306 304 304 304 306 306 306 306 305 303 301 299 298 295 294 294 293 291 288 285 281 277 275 272 269 266 260 255 252 249 249 252 253 253 253 253 250 247
310 309 311 311 309 307 307 308 308 308 308 307 306 305 305 304 304 302 300 299 297 295 291 288 286 283 279 275 272 269 267 266 262 257 251 248 246 246 246 247 247 247 245
312 312 313 311 310 311 311 312 312 311 310 309 310 310 309 306 304 303 302 300 298 296 293 292 288 286 283 282 278 276 270 264 262 261 258 254 247 245 244 242 241 240 241
312 312 312 311 312 314 315 315 313 312 312 313 312 310 307 306 306 305 302 300 299 298 294 289 290 287 285 284 283 280 276 271 267 264 260 258 258 254 247 245 243 240 236
312 313 312 313 316 318 317 317 316 316 316 315 311 310 308 307 305 301 296 296 298 297 295 294 293 286 285 288 285 281 276 272 269 266 262 259 257 256 253 248 245 243 238
312 313 314 317 318 319 319 319 319 319 318 315 313 310 308 305 302 297 294 293 293 295 296 301 299 293 291 292 289 285 278 274 269 266 262 258 255 252 251 248 244 243 239
313 314 317 319 321 321 322 323 323 321 317 314 312 309 306 303 300 298 295 294 293 295 298 302 301 295 294 290 287 281 279 278 276 274 270 264 258 251 246 246 242 242 235
313 316 318 321 321 323 324 323 325 322 316 314 311 307 305 303 301 300 299 297 295 296 299 303 300 296 294 290 282 279 279 278 277 277 273 270 261 254 246 241 241 241 238
315 317 320 324 324 324 324 325 324 318 316 312 309 306 304 301 299 300 300 298 297 299 301 301 300 297 294 287 285 285 284 282 279 276 272 269 264 256 247 239 237 240 240
315 319 323 325 324 325 327 325 320 318 315 310 306 305 303 302 301 301 300 300 300 302 302 302 302 299 294 291 291 291 288 286 282 276 270 264 260 254 245 239 234 235 239
316 320 325 327 326 326 329 323 318 317 314 310 307 304 303 303 303 302 302 303 304 305 304 305 304 300 299 299 299 297 294 289 284 274 260 252 253 245 240 235 230 230 234
315 322 324 327 328 330 326 322 319 316 313 309 306 304 303 302 304 305 306 305 306 307 307 307 305 302 303 303 302 301 298 293 285 269 251 249 248 241 233 233 225 225 226
314 317 322 329 330 330 322 321 318 315 312 308 307 306 305 306 309 307 309 309 308 310 308 307 305 305 307 307 306 305 303 297 285 263 240 238 243 241 228 230 221 220 219
311 310 323 328 329 329 320 319 316 315 312 309 308 307 307 308 309 309 311 311 312 311 310 308 307 309 312 313 312 312 307 293 281 258 242 242 242 242 232 226 218 214 213
307 314 327 330 329 325 320 318 315 314 311 309 307 308 310 309 309 312 315 315 314 313 310 308 309 314 317 317 318 319 310 295 285 262 245 240 239 234 229 219 216 206 207
305 321 331 331 327 320 320 317 314 313 311 309 309 310 310 310 313 316 316 316 316 315 309 310 318 320 323 323 326 324 315 297 284 264 262 249 238 234 225 215 214 201 200
Height
5789 5787 5786 5785 5780 5780 5777 5775 5771 5768 5765 5763 5760 5760 5757 5755 5753 5750 5745 5746 5746 5743 5741 5740 5739 5738 5738 5739 5738 5738 5739 5739 5739 5741 5744 5745 5743 5744 5746 5745 5744 5746 5747
5784 5782 5779 5776 5773 5770 5766 5766 5762 5758 5755 5753 5752 5749 5748 5745 5743 5742 5738 5733 5736 5734 5733 5731 5730 5729 5728 5728 5729 5728 5728 5730 5730 5731 5733 5736 5739 5737 5738 5739 5741 5740 5742
5778 5775 5771 5768 5763 5760 5758 5755 5751 5749 5745 5744 5741 5739 5737 5735 5733 5730 5728 5725 5721 5721 5720 5721 5720 5718 5716 5715 5716 5716 5716 5716 5717 5718 5722 5724 5726 5729 5729 5731 5734 5734 5734
5768 5765 5763 5762 5757 5754 5750 5746 5742 5739 5737 5733 5731 5730 5727 5724 5720 5717 5714 5712 5708 5707 5704 5704 5704 5706 5702 5702 5701 5701 5702 5701 5701 5703 5704 5709 5715 5716 5718 5721 5724 5727 5728
5758 5756 5754 5751 5747 5744 5740 5736 5732 5729 5726 5724 5721 5719 5714 5710 5707 5704 5700 5696 5693 5691 5690 5688 5685 5685 5684 5684 5684 5682 5681 5684 5686 5687 5688 5689 5695 5703 5707 5708 5710 5714 5718
5753 5750 5748 5744 5740 5735 5730 5726 5722 5718 5714 5710 5708 5706 5702 5697 5692 5688 5684 5681 5678 5675 5669 5669 5667 5667 5662 5664 5665 5663 5662 5663 5664 5667 5670 5672 5673 5679 5690 5695 5695 5700 5705
5750 5744 5737 5732 5728 5724 5718 5713 5709 5706 5701 5696 5691 5689 5687 5681 5676 5669 5665 5660 5656 5653 5649 5646 5644 5641 5641 5640 5638 5638 5640 5640 5642 5646 5648 5650 5655 5655 5664 5675 5682 5686 5691
5737 5732 5727 5722 5716 5711 5706 5701 5696 5693 5688 5682 5676 5670 5669 5667 5660 5651 5644 5638 5630 5625 5621 5618 5616 5612 5611 5612 5608 5607 5606 5615 5615 5617 5622 5627 5632 5636 5638 5648 5660 5669 5673
5729 5723 5718 5712 5707 5701 5695 5689 5683 5680 5673 5667 5661 5655 5648 5642 5635 5629 5622 5614 5605 5596 5589 5583 5580 5578 5575 5575 5573 5571 5574 5583 5585 5584 5590 5598 5602 5610 5616 5621 5632 5645 5654
5720 5714 5708 5701 5695 5688 5683 5677 5670 5664 5657 5650 5642 5633 5624 5616 5608 5604 5592 5582 5574 5565 5555 5548 5543 5540 5536 5533 5534 5532 5532 5541 5549 5552 5558 5560 5570 5577 5585 5594 5604 5615 5630
5710 5704 5697 5690 5683 5676 5669 5662 5655 5647 5638 5630 5620 5610 5601 5593 5583 5571 5567 5553 5539 5527 5516 5509 5504 5501 5497 5495 5494 5493 5492 5498 5507 5508 5517 5525 5533 5543 5552 5562 5573 5587 5600
5699 5693 5685 5677 5669 5661 5654 5645 5638 5630 5621 5611 5601 5589 5575 5562 5549 5535 5524 5518 5507 5503 5494 5488 5482 5479 5477 5475 5474 5472 5471 5474 5475 5478 5486 5491 5498 5505 5516 5528 5541 5554 5570
5688 5680 5672 5665 5656 5648 5641 5632 5622 5612 5600 5588 5574 5559 5545 5531 5518 5508 5497 5494 5490 5485 5480 5475 5469 5465 5462 5460 5459 5458 5457 5457 5456 5459 5463 5466 5471 5477 5484 5495 5507 5524 5539
5675 5668 5660 5652 5644 5635 5626 5615 5605 5592 5579 5565 5550 5536 5522 5508 5497 5487 5480 5476 5476 5473 5469 5465 5460 5454 5450 5448 5446 5444 5443 5443 5441 5443 5446 5448 5451 5455 5461 5468 5478 5493 5511
5662 5654 5646 5638 5630 5621 5610 5597 5585 5573 5559 5544 5527 5512 5501 5489 5481 5475 5469 5465 5462 5462 5461 5457 5451 5444 5438 5435 5432 5431 5429 5429 5428 5429 5431 5433 5435 5437 5440 5446 5454 5464 5482
5649 5641 5632 5623 5614 5604 5593 5581 5569 5553 5537 5520 5505 5492 5482 5474 5469 5464 5459 5455 5452 5448 5448 5445 5439 5431 5426 5421 5418 5417 5416 5414 5414 5414 5416 5418 5420 5423 5425 5431 5436 5442 5456
5637 5628 5619 5609 5599 5588 5576 5563 5548 5531 5514 5500 5488 5477 5469 5462 5457 5453 5450 5445 5442 5437 5432 5435 5426 5419 5414 5409 5405 5403 5403 5402 5401 5401 5403 5403 5405 5408 5412 5417 5421 5426 5435
5623 5614 5606 5596 5585 5572 5558 5545 5529 5513 5496 5482 5472 5464 5457 5452 5447 5443 5439 5435 5431 5426 5420 5416 5415 5407 5401 5397 5393 5392 5391 5390 5389 5387 5388 5387 5391 5393 5397 5403 5407 5413 5420
5611 5602 5592 5581 5568 5555 5540 5525 5508 5493 5480 5469 5460 5453 5448 5443 5440 5435 5430 5425 5420 5415 5409 5404 5401 5394 5390 5385 5383 5380 5378 5376 5375 5372 5373 5372 5375 5379 5383 5387 5394 5400 5407
5598 5588 5577 5565 5554 5541 5524 5506 5491 5478 5466 5457 5450 5444 5439 5435 5430 5426 5420 5415 5409 5403 5398 5392 5387 5382 5377 5374 5370 5368 5364 5360 5358 5355 5357 5357 5360 5365 5370 5375 5381 5389 5396
5583 5572 5562 5550 5536 5524 5509 5490 5475 5463 5454 5447 5441 5436 5430 5426 5421 5416 5410 5404 5398 5392 5387 5380 5375 5370 5366 5362 5357 5353 5348 5344 5341 5338 5341 5342 5345 5351 5356 5361 5369 5378 5387
5569 5558 5546 5533 5520 5504 5488 5476 5463 5451 5443 5438 5432 5427 5422 5416 5412 5407 5401 5395 5388 5382 5376 5370 5365 5361 5356 5351 5345 5339 5334 5329 5327 5323 5326 5329 5331 5337 5343 5349 5359 5368 5378
5555 5543 5531 5518 5505 5492 5472 5460 5450 5441 5435 5429 5424 5419 5414 5408 5403 5396 5391 5385 5379 5373 5367 5361 5357 5352 5347 5341 5335 5328 5321 5316 5314 5313 5315 5317 5321 5326 5333 5337 5350 5359 5370
5538 5526 5515 5503 5490 5481 5461 5450 5440 5433 5426 5421 5416 5412 5406 5400 5395 5389 5383 5376 5370 5364 5358 5353 5349 5344 5338 5331 5324 5317 5311 5306 5305 5305 5305 5308 5313 5318 5323 5331 5343 5352 5363
5523 5511 5499 5486 5474 5463 5449 5440 5432 5426 5420 5414 5409 5404 5399 5392 5387 5382 5375 5368 5362 5356 5351 5347 5343 5337 5331 5323 5316 5309 5303 5299 5297 5296 5298 5299 5304 5308 5314 5325 5334 5344 5355
5509 5498 5483 5475 5463 5449 5441 5431 5424 5419 5413 5408 5403 5397 5393 5386 5379 5373 5367 5362 5356 5350 5346 5342 5336 5330 5324 5317 5309 5302 5296 5293 5291 5291 5291 5293 5296 5301 5310 5320 5327 5337 5347